TimeEST,TemperatureF,Dew PointF,Humidity,Sea Level PressureIn,VisibilityMPH,Wind Direction,Wind SpeedMPH,Gust SpeedMPH,PrecipitationIn,Events,Conditions,WindDirDegrees,DateUTC
12:54 AM,46.9,36.0,66,30.22,10.0,ENE,5.8,-,N/A,,Clear,70,2013-02-07 05:54:00
1:54 AM,45.0,39.0,80,30.22,9.0,East,6.9,-,N/A,,Clear,80,2013-02-07 06:54:00
2:54 AM,43.0,37.9,82,30.23,8.0,ENE,3.5,-,N/A,,Clear,60,2013-02-07 07:54:00
3:54 AM,42.1,39.0,89,30.23,7.0,ENE,4.6,-,N/A,,Clear,60,2013-02-07 08:54:00
4:54 AM,41.0,39.0,93,30.23,5.0,ENE,5.8,-,N/A,,Clear,60,2013-02-07 09:54:00
5:54 AM,42.1,39.0,89,30.25,5.0,ENE,5.8,-,N/A,,Clear,60,2013-02-07 10:54:00
6:54 AM,42.1,39.0,89,30.25,5.0,ENE,8.1,-,N/A,,Clear,70,2013-02-07 11:54:00
7:54 AM,43.0,39.9,89,30.24,3.0,NE,9.2,-,N/A,,Clear,50,2013-02-07 12:54:00
8:54 AM,44.1,39.9,85,30.27,4.0,NE,9.2,-,N/A,,Clear,50,2013-02-07 13:54:00
9:54 AM,46.9,41.0,80,30.25,4.0,NE,9.2,-,N/A,,Haze,50,2013-02-07 14:54:00
10:54 AM,50.0,42.1,74,30.22,5.0,NE,9.2,-,N/A,,Haze,50,2013-02-07 15:54:00
11:54 AM,53.1,44.1,71,30.21,-9999.0,North,-9999.0,-,0.04,,Clear,0,2013-02-07 16:54:00
12:54 PM,53.1,44.1,71,30.17,9.0,NE,10.4,-,N/A,,Mostly Cloudy,50,2013-02-07 17:54:00
1:54 PM,54.0,45.0,72,30.14,8.0,ENE,9.2,-,N/A,,Overcast,60,2013-02-07 18:54:00
2:54 PM,54.0,46.0,75,30.12,6.0,NE,15.0,-,N/A,,Haze,40,2013-02-07 19:54:00
3:54 PM,52.0,46.9,83,30.11,4.0,NNE,9.2,-,0.01,Rain,Light Rain,30,2013-02-07 20:54:00
4:49 PM,50.0,46.4,87,30.09,2.5,NNE,12.7,-,0.04,Rain,Light Rain,20,2013-02-07 21:49:00
4:54 PM,50.0,46.9,89,30.09,2.5,NNE,11.5,-,0.04,Rain,Light Rain,30,2013-02-07 21:54:00
5:19 PM,48.2,46.4,93,30.08,3.0,NNE,11.5,-,0.02,Rain,Light Rain,20,2013-02-07 22:19:00
5:54 PM,48.9,46.9,93,30.06,4.0,NNE,11.5,20.7,0.04,Rain,Light Rain,30,2013-02-07 22:54:00
6:19 PM,48.2,46.4,93,30.05,3.0,NE,12.7,20.7,0.02,Rain,Light Rain,40,2013-02-07 23:19:00
6:49 PM,50.0,48.2,94,30.05,3.0,NE,12.7,-,0.05,Rain,Light Rain,40,2013-02-07 23:49:00
6:54 PM,50.0,48.0,93,30.04,3.0,NE,13.8,20.7,0.06,Rain,Rain,40,2013-02-07 23:54:00
7:09 PM,50.0,48.2,94,30.04,3.0,NE,11.5,20.7,0.02,Rain,Light Rain,40,2013-02-08 00:09:00
7:54 PM,50.0,48.0,93,30.02,4.0,NE,11.5,-,0.04,Rain,Light Rain,50,2013-02-08 00:54:00
8:54 PM,50.0,48.0,93,29.98,6.0,ENE,13.8,-,0.03,Rain,Light Rain,60,2013-02-08 01:54:00
9:54 PM,48.9,46.9,93,29.94,9.0,ENE,15.0,21.9,0.01,,Overcast,60,2013-02-08 02:54:00
10:33 PM,48.2,46.4,93,29.90,4.0,NE,12.7,21.9,0.04,Rain,Rain,50,2013-02-08 03:33:00
10:54 PM,48.9,48.0,97,29.87,3.0,NE,16.1,23.0,0.11,Rain,Rain,50,2013-02-08 03:54:00
11:31 PM,50.0,48.2,94,29.84,4.0,NE,12.7,-,0.14,Rain,Rain,50,2013-02-08 04:31:00
11:54 PM,50.0,48.0,93,29.82,6.0,NE,10.4,20.7,0.17,Rain,Light Rain,40,2013-02-08 04:54:00